| time (UTC) | temp F | wind direction | speed knots | gust knots | rain 1hr in | rain 24hr in | rain mn in | humidity % | barometer mb |
| 20260831063030 | 74 | 106 | 0.0 | 1.7 | 0.00 | 0.00 | 0.00 | 76 | 1015.8 |
| 20260831061532 | 75 | 128 | 0.0 | 1.7 | 0.00 | 0.00 | 0.00 | 75 | 1015.8 |
| 20260831060029 | 75 | 128 | 0.0 | 1.7 | 0.00 | 0.00 | 0.00 | 73 | 1015.8 |
| 20260831054530 | 76 | 106 | 0.0 | 1.7 | 0.00 | 0.00 | 0.00 | 72 | 1015.9 |
| 20260831053034 | 77 | 125 | 0.0 | 1.7 | 0.00 | 0.00 | 0.00 | 71 | 1016.0 |
| 20260831051538 | 77 | 30 | 0.0 | 2.6 | 0.00 | 0.00 | 0.00 | 70 | 1016.0 |
| 20260831050037 | 77 | 5 | 0.0 | 3.5 | 0.00 | 0.00 | 0.00 | 70 | 1016.0 |
| 20260831044507 | 78 | 350 | 1.7 | 7.0 | 0.00 | 0.00 | 0.00 | 69 | 1016.1 |
| 20260831043011 | 80 | 337 | 1.7 | 9.6 | 0.00 | 0.00 | 0.00 | 63 | 1016.3 |
| 20260831041522 | 82 | 94 | 0.9 | 5.2 | 0.00 | 0.00 | 0.00 | 56 | 1015.6 |
| 20260831040024 | 83 | 93 | 0.0 | 1.7 | 0.00 | 0.00 | 0.00 | 50 | 1015.3 |
| 20260831034506 | 84 | 161 | 0.0 | 2.6 | 0.00 | 0.00 | 0.00 | 53 | 1014.7 |
| 20260831033010 | 83 | 24 | 1.7 | 2.6 | 0.00 | 0.00 | 0.00 | 52 | 1014.2 |
| 20260831031511 | 84 | 31 | 0.0 | 3.5 | 0.00 | 0.00 | 0.00 | 53 | 1013.5 |
| 20260831030023 | 84 | 156 | 1.7 | 7.8 | 0.00 | 0.00 | 0.00 | 54 | 1013.2 |
| 20260831024505 | 83 | 126 | 2.6 | 5.2 | 0.00 | 0.00 | 0.00 | 54 | 1013.1 |
| 20260831023007 | 83 | 136 | 1.7 | 3.5 | 0.00 | 0.00 | 0.00 | 55 | 1013.3 |
| 20260831021512 | 84 | 128 | 0.0 | 1.7 | 0.00 | 0.00 | 0.00 | 54 | 1013.0 |
| 20260831020016 | 85 | 114 | 0.0 | 1.7 | 0.00 | 0.00 | 0.00 | 53 | 1012.9 |
| 20260831014536 | 86 | 120 | 0.0 | 0.0 | 0.00 | 0.00 | 0.00 | 50 | 1012.9 |
| 20260831013005 | 87 | 120 | 0.0 | 0.0 | 0.00 | 0.00 | 0.00 | 50 | 1012.9 |
| 20260831011513 | 89 | 120 | 0.0 | 0.0 | 0.00 | 0.00 | 0.00 | 47 | 1013.0 |
| 20260831010016 | 90 | 120 | 0.0 | 0.0 | 0.00 | 0.00 | 0.00 | 45 | 1012.9 |
| 20260831004519 | 92 | 120 | 0.0 | 0.0 | 0.00 | 0.00 | 0.00 | 43 | 1013.0 |
| 20260831003030 | 94 | 120 | 0.0 | 1.7 | 0.00 | 0.00 | 0.00 | 41 | 1012.9 |
| 20260831001505 | 96 | 153 | 0.9 | 3.5 | 0.00 | 0.00 | 0.00 | 37 | 1012.9 |
| 20260831000016 | 96 | 122 | 0.0 | 1.7 | 0.00 | 0.00 | 0.00 | 35 | 1013.0 |
| 20260830234516 | 97 | 182 | 0.9 | 4.3 | 0.00 | 0.00 | 0.00 | 35 | 1013.1 |
| 20260830233027 | 98 | 144 | 0.9 | 2.6 | 0.00 | 0.00 | 0.00 | 34 | 1013.1 |
| 20260830231534 | 98 | 145 | 0.0 | 3.5 | 0.00 | 0.00 | 0.00 | 33 | 1012.9 |
| 20260830230010 | 98 | 137 | 0.0 | 4.3 | 0.00 | 0.00 | 0.00 | 34 | 1012.9 |
| 20260830224516 | 98 | 175 | 1.7 | 3.5 | 0.00 | 0.00 | 0.00 | 33 | 1012.9 |
| 20260830223028 | 97 | 212 | 0.0 | 4.3 | 0.00 | 0.00 | 0.00 | 33 | 1013.1 |
| 20260830221504 | 97 | 182 | 0.0 | 5.2 | 0.00 | 0.00 | 0.00 | 33 | 1013.1 |
| 20260830220003 | 98 | 137 | 1.7 | 4.3 | 0.00 | 0.00 | 0.00 | 31 | 1013.1 |
| 20260830214504 | 99 | 138 | 1.7 | 5.2 | 0.00 | 0.00 | 0.00 | 32 | 1013.2 |
| 20260830213003 | 98 | 201 | 0.0 | 4.3 | 0.00 | 0.00 | 0.00 | 31 | 1013.3 |
| 20260830211504 | 98 | 326 | 0.0 | 6.1 | 0.00 | 0.00 | 0.00 | 33 | 1013.4 |
| 20260830210004 | 98 | 201 | 0.9 | 4.3 | 0.00 | 0.00 | 0.00 | 31 | 1013.5 |
| 20260830204503 | 98 | 215 | 0.0 | 1.7 | 0.00 | 0.00 | 0.00 | 34 | 1013.8 |
| 20260830203009 | 98 | 27 | 0.0 | 3.5 | 0.00 | 0.00 | 0.00 | 37 | 1013.8 |
| 20260830201504 | 97 | 349 | 0.9 | 2.6 | 0.00 | 0.00 | 0.00 | 36 | 1013.9 |
| 20260830200004 | 97 | 173 | 0.9 | 4.3 | 0.00 | 0.00 | 0.00 | 34 | 1014.1 |
| 20260830194506 | 97 | 281 | 0.9 | 2.6 | 0.00 | 0.00 | 0.00 | 38 | 1014.2 |
| 20260830193003 | 96 | 36 | 1.7 | 4.3 | 0.00 | 0.00 | 0.00 | 37 | 1014.3 |
| 20260830191507 | 96 | 334 | 0.9 | 2.6 | 0.00 | 0.00 | 0.00 | 36 | 1014.4 |
| 20260830190012 | 95 | 342 | 1.7 | 5.2 | 0.00 | 0.00 | 0.00 | 38 | 1014.4 |
| 20260830184506 | 94 | 304 | 0.9 | 4.3 | 0.00 | 0.00 | 0.00 | 41 | 1014.5 |
| 20260830183005 | 93 | 323 | 0.9 | 5.2 | 0.00 | 0.00 | 0.00 | 44 | 1014.5 |
| 20260830181504 | 93 | 352 | 0.9 | 4.3 | 0.00 | 0.00 | 0.00 | 46 | 1014.7 |
| 20260830180010 | 92 | 14 | 1.7 | 4.3 | 0.00 | 0.00 | 0.00 | 47 | 1014.8 |
| 20260830174506 | 90 | 337 | 0.9 | 5.2 | 0.00 | 0.00 | 0.00 | 49 | 1015.1 |
| 20260830173008 | 89 | 297 | 0.9 | 6.1 | 0.00 | 0.00 | 0.00 | 49 | 1015.3 |
| 20260830171508 | 88 | 336 | 1.7 | 4.3 | 0.00 | 0.00 | 0.00 | 51 | 1015.4 |
| 20260830170010 | 86 | 343 | 2.6 | 4.3 | 0.00 | 0.00 | 0.00 | 53 | 1015.4 |
| 20260830164526 | 84 | 305 | 1.7 | 5.2 | 0.00 | 0.00 | 0.00 | 55 | 1015.4 |
| 20260830163009 | 83 | 324 | 2.6 | 6.1 | 0.00 | 0.00 | 0.00 | 57 | 1015.3 |
| 20260830161508 | 81 | 348 | 1.7 | 5.2 | 0.00 | 0.00 | 0.00 | 60 | 1015.3 |
| 20260830160013 | 81 | 310 | 0.9 | 4.3 | 0.00 | 0.00 | 0.00 | 60 | 1015.2 |
| 20260830154512 | 81 | 360 | 0.0 | 2.6 | 0.00 | 0.00 | 0.00 | 62 | 1015.1 |
| 20260830153025 | 80 | 287 | 0.0 | 2.6 | 0.00 | 0.00 | 0.00 | 62 | 1015.0 |
| 20260830151526 | 80 | 360 | 0.9 | 4.3 | 0.00 | 0.00 | 0.00 | 60 | 1014.7 |
| 20260830150028 | 79 | 300 | 1.7 | 6.1 | 0.00 | 0.00 | 0.00 | 63 | 1014.7 |
| 20260830144511 | 78 | 331 | 0.9 | 3.5 | 0.00 | 0.00 | 0.00 | 66 | 1014.8 |
| 20260830143014 | 76 | 344 | 0.0 | 4.3 | 0.00 | 0.00 | 0.00 | 69 | 1014.6 |
| 20260830141512 | 75 | 343 | 0.9 | 2.6 | 0.00 | 0.00 | 0.00 | 70 | 1014.6 |
| 20260830140016 | 73 | 321 | 0.0 | 1.7 | 0.00 | 0.00 | 0.00 | 73 | 1014.7 |
| 20260830134525 | 72 | 341 | 0.0 | 1.7 | 0.00 | 0.00 | 0.00 | 77 | 1014.5 |
| 20260830133015 | 71 | 336 | 0.0 | 1.7 | 0.00 | 0.00 | 0.00 | 79 | 1014.5 |
| 20260830131519 | 69 | 234 | 0.0 | 0.0 | 0.00 | 0.00 | 0.00 | 82 | 1014.6 |
| 20260830130020 | 68 | 234 | 0.0 | 0.0 | 0.00 | 0.00 | 0.00 | 82 | 1014.6 |
| 20260830124522 | 67 | 234 | 0.0 | 0.0 | 0.00 | 0.00 | 0.00 | 81 | 1014.5 |
| 20260830123004 | 67 | 234 | 0.0 | 1.7 | 0.00 | 0.00 | 0.00 | 79 | 1014.4 |
| 20260830121510 | 68 | 190 | 0.0 | 1.7 | 0.00 | 0.00 | 0.00 | 77 | 1013.9 |
| 20260830120014 | 68 | 207 | 0.0 | 1.7 | 0.00 | 0.00 | 0.00 | 77 | 1013.8 |
| 20260830114523 | 68 | 259 | 0.0 | 0.0 | 0.00 | 0.00 | 0.00 | 75 | 1014.0 |
| 20260830113025 | 68 | 248 | 0.0 | 1.7 | 0.00 | 0.00 | 0.00 | 74 | 1013.9 |
| 20260830111510 | 69 | 252 | 0.0 | 1.7 | 0.00 | 0.00 | 0.00 | 73 | 1013.8 |
| 20260830110016 | 69 | 215 | 0.0 | 0.0 | 0.00 | 0.00 | 0.00 | 72 | 1013.7 |
| 20260830104520 | 70 | 215 | 0.0 | 1.7 | 0.00 | 0.00 | 0.00 | 69 | 1013.6 |
| 20260830103024 | 71 | 190 | 0.0 | 1.7 | 0.00 | 0.00 | 0.00 | 68 | 1013.5 |
| 20260830101507 | 70 | 159 | 0.0 | 1.7 | 0.00 | 0.00 | 0.00 | 69 | 1013.6 |
| 20260830100015 | 71 | 146 | 0.0 | 1.7 | 0.00 | 0.00 | 0.00 | 69 | 1013.6 |
| 20260830094518 | 71 | 185 | 0.0 | 0.9 | 0.00 | 0.00 | 0.00 | 68 | 1013.8 |
| 20260830093032 | 71 | 335 | 0.0 | 0.0 | 0.00 | 0.00 | 0.00 | 68 | 1013.9 |
| 20260830091531 | 72 | 335 | 0.0 | 0.0 | 0.00 | 0.00 | 0.00 | 67 | 1014.0 |
| 20260830090033 | 73 | 335 | 0.0 | 1.7 | 0.00 | 0.00 | 0.00 | 65 | 1014.0 |
| 20260830084519 | 74 | 335 | 0.0 | 1.7 | 0.00 | 0.00 | 0.00 | 61 | 1014.2 |
| 20260830083053 | 76 | 265 | 0.0 | 4.3 | 0.00 | 0.00 | 0.00 | 58 | 1014.0 |
| 20260830081532 | 76 | 227 | 1.7 | 6.1 | 0.00 | 0.00 | 0.00 | 57 | 1013.7 |
| 20260830080031 | 77 | 175 | 3.5 | 8.7 | 0.00 | 0.00 | 0.00 | 55 | 1013.5 |
| 20260830074514 | 78 | 174 | 5.2 | 9.6 | 0.00 | 0.00 | 0.00 | 54 | 1013.4 |
| 20260830073020 | 78 | 222 | 5.2 | 13.9 | 0.00 | 0.00 | 0.00 | 53 | 1013.5 |
| 20260830071527 | 79 | 217 | 5.2 | 9.6 | 0.00 | 0.00 | 0.00 | 53 | 1013.4 |
| 20260830070034 | 79 | 194 | 4.3 | 10.4 | 0.00 | 0.00 | 0.00 | 52 | 1013.4 |
| 20260830064532 | 80 | 200 | 5.2 | 9.6 | 0.00 | 0.00 | 0.00 | 51 | 1013.6 |